When you browse on this site, cookies collect data to enhance your experience and personalize the content and advertising you see.
Visit our Privacy Policy to learn more. By continuing to use the site, you agree to this use of cookies and data.
  • In United Kingdom
  • List of Countries
  • For 7 days
  • Water Temperature
  • Weather Map
  • Weather Widgets
  • user-avatar
    Login

    Hourly Weather York

    Today, 27 February, Thursday

    Time Temperature Precipitation Wind Pressure Humidity
    00:00 0°C° 0 mm 4 mps 749 mmHg 86%
    01:00 0°C° 0.1 mm 4 mps 748 mmHg 87%
    02:00 +1°C° 0.1 mm 3 mps 748 mmHg 89%
    03:00 +1°C° 0.1 mm 3 mps 747 mmHg 90%
    04:00 +1°C° 0.4 mm 3 mps 747 mmHg 92%
    05:00 +1°C° 0.4 mm 3 mps 747 mmHg 94%
    06:00 +2°C° 0.4 mm 2 mps 746 mmHg 96%
    07:00 +2°C° 0.3 mm 2 mps 746 mmHg 95%
    08:00 +1°C° 0.3 mm 3 mps 746 mmHg 94%
    09:00 +2°C° 0.3 mm 3 mps 746 mmHg 92%
    10:00 +3°C° 0 mm 4 mps 747 mmHg 82%
    11:00 +3°C° 0 mm 5 mps 747 mmHg 72%
    12:00 +3°C° 0 mm 6 mps 748 mmHg 62%
    13:00 +4°C° 0 mm 6 mps 748 mmHg 60%
    14:00 +4°C° 0 mm 7 mps 748 mmHg 58%
    15:00 +4°C° 0 mm 7 mps 749 mmHg 56%
    16:00 +3°C° 0 mm 6 mps 750 mmHg 60%
    17:00 +2°C° 0 mm 6 mps 751 mmHg 64%
    18:00 +1°C° 0 mm 5 mps 751 mmHg 68%
    19:00 +1°C° 0 mm 5 mps 752 mmHg 70%
    20:00 0°C° 0 mm 5 mps 753 mmHg 71%
    21:00 0°C° 0 mm 5 mps 754 mmHg 73%
    22:00 0°C° 0 mm 4 mps 754 mmHg 75%
    23:00 0°C° 0 mm 4 mps 755 mmHg 78%

    Tomorrow, 28 February, Friday

    Time Temperature Precipitation Wind Pressure Humidity
    00:00 0°C° 0 mm 3 mps 755 mmHg 80%
    01:00 0°C° 0 mm 3 mps 755 mmHg 81%
    02:00 0°C° 0 mm 3 mps 755 mmHg 82%
    03:00 +1°C° 0 mm 2 mps 755 mmHg 82%
    04:00 +1°C° 0 mm 3 mps 755 mmHg 82%
    05:00 +1°C° 0 mm 3 mps 755 mmHg 82%
    06:00 +1°C° 0 mm 3 mps 755 mmHg 81%
    07:00 0°C° 0 mm 4 mps 754 mmHg 79%
    08:00 +1°C° 0 mm 5 mps 754 mmHg 76%
    09:00 +1°C° 0 mm 5 mps 753 mmHg 74%
    10:00 +1°C° 0.1 mm 6 mps 752 mmHg 80%
    11:00 +1°C° 0.1 mm 6 mps 751 mmHg 86%
    12:00 0°C° 0.1 mm 7 mps 750 mmHg 92%
    13:00 0°C° 1.6 mm 7 mps 749 mmHg 94%
    14:00 -1°C° 1.6 mm 7 mps 747 mmHg 95%
    15:00 -1°C° 1.6 mm 7 mps 745 mmHg 96%
    16:00 +1°C° 1 mm 6 mps 744 mmHg 97%
    17:00 +2°C° 1 mm 5 mps 743 mmHg 97%
    18:00 +4°C° 1 mm 4 mps 742 mmHg 97%
    19:00 +4°C° 0.1 mm 4 mps 741 mmHg 97%
    20:00 +5°C° 0.1 mm 3 mps 740 mmHg 97%
    21:00 +7°C° 0.1 mm 3 mps 740 mmHg 97%
    22:00 +7°C° 0.7 mm 4 mps 739 mmHg 96%
    23:00 +7°C° 0.7 mm 5 mps 738 mmHg 95%

    Day after tomorrow, 29 February, Saturday

    Time Temperature Precipitation Wind Pressure Humidity
    00:00 +8°C° 0.7 mm 6 mps 737 mmHg 95%
    01:00 +8°C° 0.6 mm 7 mps 736 mmHg 93%
    02:00 +9°C° 0.6 mm 7 mps 735 mmHg 92%
    03:00 +9°C° 0.6 mm 8 mps 734 mmHg 90%
    04:00 +9°C° 0 mm 8 mps 733 mmHg 89%
    05:00 +9°C° 0 mm 8 mps 731 mmHg 88%
    06:00 +9°C° 0 mm 8 mps 730 mmHg 86%
    07:00 +7°C° 0.9 mm 8 mps 729 mmHg 88%
    08:00 +7°C° 0.9 mm 8 mps 728 mmHg 89%
    09:00 +6°C° 0.9 mm 8 mps 727 mmHg 90%
    10:00 +6°C° 0.5 mm 7 mps 728 mmHg 81%
    11:00 +5°C° 0.5 mm 7 mps 728 mmHg 72%
    12:00 +4°C° 0.5 mm 7 mps 728 mmHg 63%
    13:00 +3°C° 0 mm 9 mps 727 mmHg 64%
    14:00 +5°C° 0 mm 10 mps 725 mmHg 64%
    15:00 +4°C° 0 mm 12 mps 724 mmHg 65%
    16:00 +3°C° 1 mm 12 mps 723 mmHg 73%
    17:00 +2°C° 1 mm 12 mps 722 mmHg 80%
    18:00 0°C° 1 mm 12 mps 720 mmHg 88%
    19:00 +1°C° 0.7 mm 11 mps 720 mmHg 86%
    20:00 +1°C° 0.7 mm 10 mps 720 mmHg 85%
    21:00 +1°C° 0.7 mm 10 mps 720 mmHg 84%
    22:00 +1°C° 0.1 mm 9 mps 721 mmHg 83%
    23:00 +1°C° 0.1 mm 9 mps 721 mmHg 81%

    1 March, Sunday

    Time Temperature Precipitation Wind Pressure Humidity
    00:00 +1°C° 0.1 mm 9 mps 722 mmHg 80%
    01:00 +1°C° 0.4 mm 9 mps 724 mmHg 83%
    02:00 0°C° 0.4 mm 9 mps 725 mmHg 86%
    03:00 0°C° 0.4 mm 10 mps 726 mmHg 89%
    04:00 -1°C° 0.9 mm 11 mps 727 mmHg 88%
    05:00 -1°C° 0.9 mm 12 mps 729 mmHg 87%
    06:00 -1°C° 0.9 mm 13 mps 730 mmHg 85%
    07:00 -1°C° 0.1 mm 12 mps 731 mmHg 80%
    08:00 0°C° 0.1 mm 12 mps 732 mmHg 75%
    09:00 +1°C° 0.1 mm 11 mps 733 mmHg 69%
    10:00 +1°C° 0 mm 11 mps 733 mmHg 66%
    11:00 +2°C° 0 mm 11 mps 734 mmHg 62%
    12:00 +2°C° 0 mm 12 mps 734 mmHg 58%
    13:00 +2°C° 0 mm 11 mps 735 mmHg 62%
    14:00 +2°C° 0 mm 11 mps 735 mmHg 65%
    15:00 +2°C° 0 mm 11 mps 735 mmHg 68%
    16:00 +2°C° 0 mm 10 mps 736 mmHg 68%
    17:00 +1°C° 0 mm 9 mps 737 mmHg 69%
    18:00 +2°C° 0 mm 7 mps 737 mmHg 69%
    19:00 +2°C° 0 mm 7 mps 738 mmHg 70%
    20:00 +2°C° 0 mm 7 mps 738 mmHg 71%
    21:00 +2°C° 0 mm 6 mps 739 mmHg 72%
    22:00 +1°C° 0 mm 6 mps 739 mmHg 74%
    23:00 +1°C° 0 mm 6 mps 740 mmHg 75%

    2 March, Monday

    Time Temperature Precipitation Wind Pressure Humidity
    00:00 +1°C° 0 mm 5 mps 740 mmHg 77%
    01:00 0°C° 0 mm 5 mps 741 mmHg 79%
    02:00 0°C° 0 mm 4 mps 741 mmHg 81%
    03:00 -1°C° 0 mm 4 mps 741 mmHg 83%
    04:00 0°C° 0 mm 3 mps 741 mmHg 84%
    05:00 0°C° 0 mm 3 mps 742 mmHg 85%
    06:00 -1°C° 0 mm 2 mps 742 mmHg 87%
    07:00 +1°C° 0 mm 2 mps 742 mmHg 83%
    08:00 +2°C° 0 mm 2 mps 743 mmHg 79%
    09:00 +3°C° 0 mm 2 mps 743 mmHg 74%
    10:00 +5°C° 0 mm 2 mps 743 mmHg 69%
    11:00 +5°C° 0 mm 3 mps 744 mmHg 63%
    12:00 +7°C° 0 mm 3 mps 744 mmHg 58%
    13:00 +7°C° 0 mm 3 mps 744 mmHg 59%
    14:00 +6°C° 0 mm 4 mps 745 mmHg 60%
    15:00 +6°C° 0 mm 4 mps 745 mmHg 61%
    16:00 +5°C° 0 mm 4 mps 746 mmHg 67%
    17:00 +4°C° 0 mm 3 mps 746 mmHg 74%
    18:00 +2°C° 0 mm 3 mps 747 mmHg 80%
    19:00 +2°C° 0 mm 3 mps 747 mmHg 82%
    20:00 +2°C° 0 mm 2 mps 748 mmHg 83%
    21:00 +2°C° 0 mm 2 mps 749 mmHg 85%
    22:00 +2°C° 0 mm 2 mps 749 mmHg 85%
    23:00 +1°C° 0 mm 2 mps 750 mmHg 85%

    3 March, Tuesday

    Time Temperature Precipitation Wind Pressure Humidity
    00:00 +2°C° 0 mm 1 mps 750 mmHg 86%
    01:00 +2°C° 0 mm 1 mps 750 mmHg 86%
    02:00 +2°C° 0 mm 1 mps 751 mmHg 85%
    03:00 +2°C° 0 mm 1 mps 751 mmHg 85%
    04:00 +2°C° 0 mm 1 mps 751 mmHg 86%
    05:00 +2°C° 0 mm 1 mps 751 mmHg 86%
    06:00 +2°C° 0 mm 1 mps 752 mmHg 86%
    07:00 +3°C° 0 mm 1 mps 752 mmHg 82%
    08:00 +3°C° 0 mm 2 mps 751 mmHg 78%
    09:00 +4°C° 0 mm 2 mps 751 mmHg 74%
    10:00 +5°C° 0 mm 2 mps 751 mmHg 68%
    11:00 +5°C° 0 mm 3 mps 751 mmHg 62%
    12:00 +7°C° 0 mm 3 mps 750 mmHg 56%
    13:00 +5°C° 0 mm 4 mps 749 mmHg 56%
    14:00 +5°C° 0 mm 4 mps 748 mmHg 55%
    15:00 +5°C° 0 mm 5 mps 748 mmHg 55%
    16:00 +3°C° 0.1 mm 5 mps 746 mmHg 62%
    17:00 +2°C° 0.1 mm 6 mps 745 mmHg 70%
    18:00 +2°C° 0.1 mm 6 mps 743 mmHg 77%
    19:00 0°C° 1 mm 7 mps 741 mmHg 83%
    20:00 0°C° 1 mm 8 mps 740 mmHg 90%
    21:00 0°C° 1 mm 9 mps 738 mmHg 96%
    22:00 0°C° 2 mm 9 mps 736 mmHg 95%
    23:00 +1°C° 2 mm 8 mps 735 mmHg 95%
    Show more